CW8399 Weather Reports


Display with metric or nautical units.
time (UTC)temp
F
wind
direction
speed
MPH
gust
MPH
rain 1hr
in
rain 24hr
in
rain mn
in
humidity
%
barometer
mb
20260902132833 77 0 2.0 5.0 0.00 0.00 0.00
20260902132337 77 0 3.0 10.0 0.00 0.00 0.00
20260902131836 77 356 5.0 10.0 0.00 0.00 0.00
20260902131339 77 340 3.0 7.0 0.00 0.00 0.00
20260902130832 77 330 4.0 8.0 0.00 0.00 0.00
20260902130335 77 337 4.0 8.0 0.00 0.00 0.00
20260902124826 77 0 3.0 7.0 0.00 0.00 0.00
20260902124346 77 355 4.0 5.0 0.00 0.00 0.00
20260902123820 77 0 3.0 5.0 0.00 0.00 0.00
20260902123323 77 344 2.0 7.0 0.00 0.00 0.00
20260902121829 78 0 5.0 11.0 0.00 0.00 0.00
20260902121331 78 357 7.0 11.0 0.00 0.00 0.00
20260902120823 78 355 4.0 9.0 0.00 0.00 0.00
20260902120325 78 0 1.0 11.0 0.00 0.00 0.00
20260902115330 78 0 4.0 12.0 0.00 0.00 0.00
20260902114336 78 0 8.0 14.0 0.00 0.00 0.00
20260902113828 78 0 4.0 9.0 0.00 0.00 0.00
20260902113332 78 358 4.0 7.0 0.00 0.00 0.00
20260902112832 79 0 2.0 10.0 0.00 0.00 0.00
20260902112332 79 354 4.0 10.0 0.00 0.00 0.00
20260902111835 79 0 5.0 11.0 0.00 0.00 0.00
20260902111338 79 359 6.0 12.0 0.00 0.00 0.00
20260902110834 79 359 8.0 14.0 0.00 0.00 0.00
20260902110329 79 0 7.0 17.0 0.00 0.00 0.00
20260902105828 79 357 12.0 17.0 0.00 0.00 0.00
20260902105331 79 0 7.0 16.0 0.00 0.00 0.00
20260902104833 79 0 7.0 15.0 0.00 0.00 0.00
20260902104335 79 0 9.0 15.0 0.00 0.00 0.00
20260902103826 80 359 9.0 15.0 0.00 0.00 0.00
20260902103326 80 359 8.0 15.0 0.00 0.00 0.00
20260902102830 80 0 7.0 13.0 0.00 0.00 0.00
20260902102333 80 0 8.0 13.0 0.00 0.00 0.00
20260902101834 80 0 7.0 12.0 0.00 0.00 0.00
20260902101336 80 359 6.0 8.0 0.00 0.00 0.00
20260902100829 80 0 4.0 6.0 0.00 0.00 0.00
20260902095336 81 0 1.0 7.0 0.00 0.00 0.00
20260902094836 81 0 3.0 8.0 0.00 0.00 0.00
20260902094341 81 0 5.0 8.0 0.00 0.00 0.00
20260902093833 81 0 3.0 7.0 0.00 0.00 0.00
20260902093333 81 0 2.0 11.0 0.00 0.00 0.00
20260902092837 81 356 3.0 11.0 0.00 0.00 0.00
20260902092336 81 0 3.0 8.0 0.00 0.00 0.00
20260902091821 81 0 4.0 11.0 0.00 0.00 0.00
20260902091344 82 0 2.0 11.0 0.00 0.00 0.00
20260902090836 82 0 4.0 11.0 0.00 0.00 0.00
20260902090318 82 0 4.0 13.0 0.00 0.00 0.00
20260902085323 82 0 5.0 10.0 0.00 0.00 0.00
20260902084845 82 0 5.0 9.0 0.00 0.00 0.00
20260902083838 82 0 4.0 11.0 0.00 0.00 0.00
20260902083318 82 0 3.0 12.0 0.00 0.00 0.00
20260902082322 83 0 4.0 13.0 0.00 0.00 0.00
20260902081328 83 351 4.0 13.0 0.00 0.00 0.00
20260902080819 83 0 8.0 16.0 0.00 0.00 0.00
20260902080320 83 355 7.0 17.0 0.00 0.00 0.00
20260902075822 83 352 8.0 17.0 0.00 0.00 0.00
20260902075326 83 0 7.0 16.0 0.00 0.00 0.00
20260902074830 83 358 7.0 16.0 0.00 0.00 0.00
20260902073826 84 0 8.0 18.0 0.00 0.00 0.00
20260902073328 84 355 10.0 20.0 0.00 0.00 0.00
20260902072830 84 358 12.0 19.0 0.00 0.00 0.00
20260902072329 84 357 10.0 18.0 0.00 0.00 0.00
20260902071334 84 357 9.0 21.0 0.00 0.00 0.00
20260902070827 84 0 9.0 20.0 0.00 0.00 0.00
20260902070327 84 357 12.0 20.0 0.00 0.00 0.00
20260902065828 84 358 10.0 20.0 0.00 0.00 0.00
20260902065331 84 0 11.0 23.0 0.00 0.00 0.00
20260902064831 84 0 8.0 23.0 0.00 0.00 0.00
20260902064336 85 352 9.0 20.0 0.00 0.00 0.00
20260902063338 85 358 11.0 22.0 0.00 0.00 0.00
20260902062818 85 359 11.0 19.0 0.00 0.00 0.00
20260902062320 85 0 10.0 18.0 0.00 0.00 0.00
20260902061822 85 346 11.0 18.0 0.00 0.00 0.00
20260902061341 85 0 10.0 19.0 0.00 0.00 0.00
20260902060831 85 359 7.0 19.0 0.00 0.00 0.00
20260902060332 85 359 9.0 18.0 0.00 0.00 0.00
20260902055320 85 350 6.0 15.0 0.00 0.00 0.00
20260902054344 86 359 6.0 14.0 0.00 0.00 0.00
20260902053837 86 0 7.0 14.0 0.00 0.00 0.00
20260902053319 86 0 5.0 15.0 0.00 0.00 0.00
20260902052837 86 359 9.0 15.0 0.00 0.00 0.00
20260902052322 86 358 7.0 13.0 0.00 0.00 0.00
20260902051824 86 0 7.0 13.0 0.00 0.00 0.00
20260902050825 87 354 6.0 14.0 0.00 0.00 0.00
20260902050326 87 349 9.0 14.0 0.00 0.00 0.00
20260902045829 87 356 4.0 14.0 0.00 0.00 0.00
20260902045330 87 0 7.0 14.0 0.00 0.00 0.00
20260902044832 87 0 7.0 16.0 0.00 0.00 0.00
20260902043330 88 358 7.0 12.0 0.00 0.00 0.00
20260902042832 88 0 5.0 10.0 0.00 0.00 0.00
20260902041836 88 0 4.0 13.0 0.00 0.00 0.00
20260902041338 88 0 5.0 13.0 0.00 0.00 0.00
20260902040830 88 0 6.0 11.0 0.00 0.00 0.00
20260902040333 88 358 5.0 9.0 0.00 0.00 0.00
20260902035835 88 0 4.0 10.0 0.00 0.00 0.00
20260902035337 89 0 4.0 10.0 0.00 0.00 0.00
20260902034839 89 0 3.0 10.0 0.00 0.00 0.00
20260902034330 89 0 4.0 10.0 0.00 0.00 0.00
20260902033832 89 349 4.0 13.0 0.00 0.00 0.00
20260902033334 89 357 6.0 13.0 0.00 0.00 0.00
20260902032834 89 0 4.0 7.0 0.00 0.00 0.00
20260902032335 89 0 2.0 9.0 0.00 0.00 0.00
20260902031836 89 0 4.0 9.0 0.00 0.00 0.00
20260902030830 90 0 5.0 12.0 0.00 0.00 0.00
20260902030331 90 0 5.0 9.0 0.00 0.00 0.00
20260902025830 90 0 2.0 7.0 0.00 0.00 0.00
20260902025318 90 0 4.0 7.0 0.00 0.00 0.00
20260902024820 91 0 3.0 4.0 0.00 0.00 0.00
20260902024343 91 0 2.0 4.0 0.00 0.00 0.00
20260902023832 91 0 2.0 4.0 0.00 0.00 0.00
20260902023334 91 0 2.0 6.0 0.00 0.00 0.00
20260902022836 92 0 2.0 7.0 0.00 0.00 0.00
20260902022336 92 0 3.0 7.0 0.00 0.00 0.00
20260902021837 92 0 3.0 7.0 0.00 0.00 0.00
20260902020831 93 0 4.0 15.0 0.00 0.00 0.00
20260902015835 93 352 4.0 17.0 0.00 0.00 0.00
20260902015337 93 358 11.0 17.0 0.00 0.00 0.00
20260902014836 94 0 5.0 15.0 0.00 0.00 0.00
20260902014338 94 357 10.0 20.0 0.00 0.00 0.00
20260902013830 94 357 7.0 20.0 0.00 0.00 0.00
20260902013333 94 0 8.0 20.0 0.00 0.00 0.00
20260902012837 95 353 10.0 25.0 0.00 0.00 0.00
20260902012319 95 350 7.0 19.0 0.00 0.00 0.00
20260902011820 95 358 8.0 20.0 0.00 0.00 0.00
20260902011343 95 346 13.0 20.0 0.00 0.00 0.00
20260902010834 95 0 9.0 20.0 0.00 0.00 0.00
20260902010336 96 0 7.0 21.0 0.00 0.00 0.00
20260902005819 96 358 13.0 21.0 0.00 0.00 0.00
20260902005320 96 359 9.0 27.0 0.00 0.00 0.00
20260902004821 96 356 12.0 27.0 0.00 0.00 0.00
20260902004343 96 0 14.0 26.0 0.00 0.00 0.00
20260902003836 96 358 14.0 25.0 0.00 0.00 0.00
20260902003321 96 359 10.0 25.0 0.00 0.00 0.00
20260902002825 96 358 14.0 24.0 0.00 0.00 0.00
20260902002324 96 357 16.0 24.0 0.00 0.00 0.00
20260902001824 96 359 16.0 26.0 0.00 0.00 0.00
20260902001345 96 351 13.0 28.0 0.00 0.00 0.00
20260902000837 96 0 15.0 28.0 0.00 0.00 0.00
20260902000338 96 353 11.0 23.0 0.00 0.00 0.00
20260901235819 96 354 13.0 21.0 0.00 0.00 0.00
20260901235318 96 359 11.0 25.0 0.00 0.00 0.00
20260901234343 96 359 13.0 23.0 0.00 0.00 0.00
20260901233317 96 347 10.0 19.0 0.00 0.00 0.00
20260901232322 96 351 10.0 22.0 0.00 0.00 0.00
20260901231346 96 357 12.0 24.0 0.00 0.00 0.00
20260901230820 96 341 11.0 26.0 0.00 0.00 0.00
20260901225825 96 358 17.0 29.0 0.00 0.00 0.00
20260901225327 97 358 8.0 20.0 0.00 0.00 0.00
20260901224828 97 352 8.0 24.0 0.00 0.00 0.00
20260901224331 97 0 9.0 24.0 0.00 0.00 0.00
20260901223823 97 359 11.0 19.0 0.00 0.00 0.00
20260901223323 97 344 11.0 20.0 0.00 0.00 0.00
20260901222824 97 346 9.0 20.0 0.00 0.00 0.00
20260901222324 97 0 8.0 22.0 0.00 0.00 0.00
20260901221823 97 0 13.0 22.0 0.00 0.00 0.00
20260901221345 97 355 8.0 18.0 0.00 0.00 0.00
20260901220836 97 353 9.0 19.0 0.00 0.00 0.00
20260901220337 97 0 10.0 19.0 0.00 0.00 0.00
20260901215822 97 358 5.0 20.0 0.00 0.00 0.00
20260901215323 97 356 13.0 20.0 0.00 0.00 0.00
20260901214824 97 0 8.0 12.0 0.00 0.00 0.00
20260901214346 97 358 5.0 14.0 0.00 0.00 0.00
20260901213834 97 355 5.0 18.0 0.00 0.00 0.00
20260901213336 97 347 13.0 18.0 0.00 0.00 0.00
20260901212836 97 0 6.0 16.0 0.00 0.00 0.00
20260901212336 97 0 7.0 18.0 0.00 0.00 0.00
20260901211837 97 351 6.0 13.0 0.00 0.00 0.00
20260901211338 97 359 7.0 16.0 0.00 0.00 0.00
20260901210830 97 357 11.0 17.0 0.00 0.00 0.00
20260901210330 97 0 7.0 17.0 0.00 0.00 0.00
20260901205830 97 0 9.0 15.0 0.00 0.00 0.00
20260901204831 97 355 12.0 19.0 0.00 0.00 0.00
20260901204338 97 0 9.0 15.0 0.00 0.00 0.00
20260901203828 96 0 4.0 17.0 0.00 0.00 0.00
20260901203328 96 358 11.0 20.0 0.00 0.00 0.00
20260901202828 96 356 11.0 23.0 0.00 0.00 0.00
20260901202328 96 352 12.0 23.0 0.00 0.00 0.00
20260901201828 96 346 7.0 20.0 0.00 0.00 0.00
20260901200327 96 344 4.0 22.0 0.00 0.00 0.00
20260901195827 96 357 9.0 22.0 0.00 0.00 0.00
20260901194831 96 359 9.0 14.0 0.00 0.00 0.00
20260901194334 95 327 5.0 18.0 0.00 0.00 0.00
20260901193825 95 0 11.0 18.0 0.00 0.00 0.00
20260901193325 95 344 8.0 18.0 0.00 0.00 0.00
20260901192826 95 354 9.0 15.0 0.00 0.00 0.00
20260901192332 94 359 6.0 19.0 0.00 0.00 0.00
20260901191835 94 346 9.0 19.0 0.00 0.00 0.00
20260901191337 94 351 6.0 19.0 0.00 0.00 0.00
20260901190831 94 335 6.0 13.0 0.00 0.00 0.00
20260901190331 94 358 7.0 18.0 0.00 0.00 0.00
20260901185317 93 339 7.0 18.0 0.00 0.00 0.00
20260901184822 93 0 11.0 18.0 0.00 0.00 0.00
20260901184342 93 346 7.0 16.0 0.00 0.00 0.00
20260901183833 93 354 2.0 18.0 0.00 0.00 0.00
20260901183335 93 358 11.0 19.0 0.00 0.00 0.00
20260901182336 92 355 9.0 22.0 0.00 0.00 0.00
20260901181835 92 344 9.0 22.0 0.00 0.00 0.00
20260901181337 92 357 9.0 20.0 0.00 0.00 0.00
20260901180337 92 352 11.0 17.0 0.00 0.00 0.00
20260901175322 91 359 6.0 20.0 0.00 0.00 0.00
20260901174822 91 354 10.0 15.0 0.00 0.00 0.00
20260901174343 90 359 8.0 17.0 0.00 0.00 0.00
20260901173836 90 354 9.0 17.0 0.00 0.00 0.00
20260901172822 90 9 6.0 15.0 0.00 0.00 0.00
20260901171826 89 354 3.0 14.0 0.00 0.00 0.00
20260901171348 89 339 6.0 17.0 0.00 0.00 0.00
20260901170819 88 357 7.0 12.0 0.00 0.00 0.00
20260901170320 88 355 8.0 11.0 0.00 0.00 0.00
20260901165822 88 359 5.0 11.0 0.00 0.00 0.00
20260901165322 87 359 5.0 11.0 0.00 0.00 0.00
20260901164828 87 353 6.0 11.0 0.00 0.00 0.00
20260901164319 87 0 6.0 11.0 0.00 0.00 0.00
20260901163823 86 0 5.0 12.0 0.00 0.00 0.00
20260901163323 86 1 7.0 12.0 0.00 0.00 0.00
20260901162822 85 356 4.0 10.0 0.00 0.00 0.00
20260901162323 85 351 2.0 10.0 0.00 0.00 0.00
20260901161821 85 344 4.0 10.0 0.00 0.00 0.00
20260901161341 84 356 2.0 9.0 0.00 0.00 0.00
20260901160830 84 356 3.0 11.0 0.00 0.00 0.00
20260901160330 84 359 5.0 11.0 0.00 0.00 0.00
20260901155831 83 345 3.0 7.0 0.00 0.00 0.00
20260901154835 83 7 2.0 8.0 0.00 0.00 0.00
20260901153833 82 0 2.0 6.0 0.00 0.00 0.00
20260901152325 81 0 4.0 8.0 0.00 0.00 0.00
20260901151824 81 359 3.0 8.0 0.00 0.00 0.00
20260901151328 80 352 5.0 8.0 0.00 0.00 0.00
20260901150820 80 354 4.0 7.0 0.00 0.00 0.00
20260901150322 80 350 4.0 6.0 0.00 0.00 0.00
20260901145325 79 0 2.0 4.0 0.00 0.00 0.00
20260901144826 79 262 2.0 4.0 0.00 0.00 0.00
20260901144329 78 141 3.0 4.0 0.00 0.00 0.00
20260901143821 78 288 1.0 4.0 0.00 0.00 0.00
20260901143321 78 109 2.0 4.0 0.00 0.00 0.00
20260901142821 78 359 3.0 4.0 0.00 0.00 0.00
20260901142323 77 0 1.0 3.0 0.00 0.00 0.00
20260901141824 77 0 2.0 3.0 0.00 0.00 0.00
20260901141329 77 0 1.0 2.0 0.00 0.00 0.00
20260901140822 77 0 0.0 2.0 0.00 0.00 0.00
20260901140323 77 0 1.0 2.0 0.00 0.00 0.00
20260901135825 77 0 1.0 1.0 0.00 0.00 0.00
20260901134828 77 0 1.0 2.0 0.00 0.00 0.00
20260901134329 77 0 0.0 1.0 0.00 0.00 0.00
20260901133822 77 0 0.0 1.0 0.00 0.00 0.00
20260901133323 77 347 0.0 1.0 0.00 0.00 0.00